When you browse on this site, cookies collect data to enhance your experience and personalize the content and advertising you see.
Visit our Privacy Policy to learn more. By continuing to use the site, you agree to this use of cookies and data.
  • En España
  • Lista de países
  • Para 7 días
  • Temperatura del agua
  • Mapa Satelital
  • El tiempo en el mapa
  • Informadores
  • user-avatar
    Iniciar sesión

    Tiempo cada hora Delhi

    Hoy, 18 Febrero, Lunes

    Tiempo Temperatura Precipitaciones Viento Presión Humedad
    00:00 +16°C° 0 mm 1 mps 739 mmHg 66%
    01:00 +15°C° 0 mm 1 mps 739 mmHg 69%
    02:00 +15°C° 0 mm 1 mps 738 mmHg 72%
    03:00 +15°C° 0 mm 1 mps 738 mmHg 74%
    04:00 +14°C° 0 mm 1 mps 738 mmHg 75%
    05:00 +14°C° 0 mm 1 mps 737 mmHg 75%
    06:00 +14°C° 0 mm 0 mps 738 mmHg 71%
    07:00 +15°C° 0 mm 0 mps 738 mmHg 67%
    08:00 +15°C° 0 mm 0 mps 738 mmHg 63%
    09:00 +19°C° 0 mm 1 mps 739 mmHg 56%
    10:00 +21°C° 0 mm 1 mps 739 mmHg 48%
    11:00 +24°C° 0 mm 2 mps 739 mmHg 42%
    12:00 +24°C° 0 mm 2 mps 738 mmHg 42%
    13:00 +24°C° 0 mm 2 mps 737 mmHg 43%
    14:00 +24°C° 0 mm 3 mps 737 mmHg 43%
    15:00 +23°C° 0.1 mm 2 mps 736 mmHg 46%
    16:00 +23°C° 0.1 mm 2 mps 736 mmHg 48%
    17:00 +21°C° 0 mm 2 mps 735 mmHg 51%
    18:00 +21°C° 0.1 mm 3 mps 735 mmHg 54%
    19:00 +20°C° 0.1 mm 3 mps 735 mmHg 56%
    20:00 +20°C° 0.1 mm 4 mps 736 mmHg 59%
    21:00 +20°C° 0.1 mm 4 mps 736 mmHg 61%
    22:00 +19°C° 0.1 mm 4 mps 736 mmHg 62%
    23:00 +19°C° 0.1 mm 4 mps 736 mmHg 64%

    Mañana, 19 Febrero, Martes

    Tiempo Temperatura Precipitaciones Viento Presión Humedad
    00:00 +18°C° 0 mm 4 mps 737 mmHg 65%
    01:00 +18°C° 0 mm 3 mps 737 mmHg 66%
    02:00 +18°C° 0 mm 3 mps 737 mmHg 67%
    03:00 +17°C° 0 mm 3 mps 737 mmHg 69%
    04:00 +17°C° 0 mm 3 mps 737 mmHg 70%
    05:00 +16°C° 0 mm 2 mps 738 mmHg 72%
    06:00 +16°C° 0 mm 2 mps 738 mmHg 70%
    07:00 +17°C° 0 mm 2 mps 739 mmHg 69%
    08:00 +17°C° 0 mm 2 mps 740 mmHg 67%
    09:00 +19°C° 0 mm 2 mps 740 mmHg 60%
    10:00 +21°C° 0 mm 2 mps 741 mmHg 54%
    11:00 +24°C° 0 mm 2 mps 742 mmHg 47%
    12:00 +25°C° 0 mm 2 mps 741 mmHg 44%
    13:00 +26°C° 0 mm 2 mps 741 mmHg 42%
    14:00 +26°C° 0 mm 2 mps 740 mmHg 39%
    15:00 +26°C° 0 mm 2 mps 740 mmHg 41%
    16:00 +26°C° 0 mm 1 mps 740 mmHg 44%
    17:00 +25°C° 0 mm 1 mps 740 mmHg 46%
    18:00 +24°C° 0 mm 1 mps 740 mmHg 50%
    19:00 +23°C° 0 mm 2 mps 741 mmHg 53%
    20:00 +21°C° 0 mm 2 mps 741 mmHg 57%
    21:00 +21°C° 0 mm 2 mps 741 mmHg 60%
    22:00 +20°C° 0 mm 2 mps 741 mmHg 62%
    23:00 +20°C° 0 mm 3 mps 741 mmHg 64%

    Pasado mañana, 20 Febrero, Miércoles

    Tiempo Temperatura Precipitaciones Viento Presión Humedad
    00:00 +19°C° 0 mm 3 mps 741 mmHg 66%
    01:00 +19°C° 0 mm 3 mps 741 mmHg 67%
    02:00 +19°C° 0 mm 3 mps 741 mmHg 68%
    03:00 +19°C° 0 mm 3 mps 741 mmHg 68%
    04:00 +18°C° 0 mm 2 mps 741 mmHg 68%
    05:00 +18°C° 0 mm 2 mps 741 mmHg 68%
    06:00 +18°C° 0 mm 2 mps 742 mmHg 67%
    07:00 +18°C° 0 mm 2 mps 742 mmHg 66%
    08:00 +19°C° 0 mm 2 mps 743 mmHg 65%
    09:00 +20°C° 0 mm 2 mps 743 mmHg 61%
    10:00 +21°C° 0 mm 2 mps 744 mmHg 57%
    11:00 +23°C° 0 mm 2 mps 744 mmHg 54%
    12:00 +21°C° 0.3 mm 2 mps 744 mmHg 57%
    13:00 +21°C° 0.3 mm 2 mps 743 mmHg 60%
    14:00 +21°C° 0.3 mm 2 mps 743 mmHg 63%
    15:00 +20°C° 0.2 mm 2 mps 743 mmHg 64%
    16:00 +20°C° 0.2 mm 2 mps 742 mmHg 65%
    17:00 +20°C° 0.2 mm 3 mps 742 mmHg 66%
    18:00 +20°C° 0 mm 3 mps 743 mmHg 66%
    19:00 +19°C° 0 mm 3 mps 743 mmHg 65%
    20:00 +19°C° 0 mm 3 mps 744 mmHg 65%
    21:00 +19°C° 0 mm 3 mps 743 mmHg 63%
    22:00 +19°C° 0 mm 4 mps 743 mmHg 61%
    23:00 +19°C° 0 mm 5 mps 743 mmHg 60%

    21 Febrero, Jueves

    Tiempo Temperatura Precipitaciones Viento Presión Humedad
    00:00 +19°C° 0 mm 4 mps 743 mmHg 58%
    01:00 +19°C° 0 mm 4 mps 742 mmHg 57%
    02:00 +19°C° 0 mm 4 mps 742 mmHg 56%
    03:00 +18°C° 0 mm 4 mps 742 mmHg 56%
    04:00 +18°C° 0 mm 3 mps 742 mmHg 56%
    05:00 +18°C° 0 mm 3 mps 742 mmHg 56%
    06:00 +18°C° 0 mm 3 mps 742 mmHg 55%
    07:00 +18°C° 0 mm 3 mps 743 mmHg 54%
    08:00 +19°C° 0 mm 3 mps 743 mmHg 53%
    09:00 +21°C° 0 mm 3 mps 744 mmHg 48%
    10:00 +22°C° 0 mm 3 mps 744 mmHg 44%
    11:00 +25°C° 0 mm 3 mps 744 mmHg 39%
    12:00 +26°C° 0 mm 3 mps 743 mmHg 39%
    13:00 +27°C° 0 mm 4 mps 742 mmHg 39%
    14:00 +28°C° 0 mm 4 mps 742 mmHg 39%
    15:00 +27°C° 0 mm 4 mps 741 mmHg 42%
    16:00 +27°C° 0 mm 3 mps 741 mmHg 45%
    17:00 +26°C° 0 mm 3 mps 740 mmHg 48%
    18:00 +25°C° 0 mm 2 mps 741 mmHg 50%
    19:00 +25°C° 0 mm 2 mps 741 mmHg 51%
    20:00 +24°C° 0 mm 2 mps 742 mmHg 52%
    21:00 +23°C° 0.2 mm 2 mps 742 mmHg 56%
    22:00 +22°C° 0.2 mm 1 mps 742 mmHg 60%
    23:00 +21°C° 0.2 mm 1 mps 742 mmHg 64%

    22 Febrero, Viernes

    Tiempo Temperatura Precipitaciones Viento Presión Humedad
    00:00 +21°C° 0.4 mm 1 mps 741 mmHg 68%
    01:00 +20°C° 0.4 mm 1 mps 741 mmHg 72%
    02:00 +19°C° 0.4 mm 1 mps 741 mmHg 77%
    03:00 +19°C° 0.6 mm 1 mps 741 mmHg 78%
    04:00 +19°C° 0.6 mm 1 mps 741 mmHg 79%
    05:00 +18°C° 0.6 mm 1 mps 741 mmHg 81%
    06:00 +17°C° 0.3 mm 0 mps 742 mmHg 78%
    07:00 +17°C° 0.3 mm 0 mps 742 mmHg 76%
    08:00 +18°C° 0.3 mm 0 mps 743 mmHg 74%
    09:00 +20°C° 0 mm 0 mps 743 mmHg 67%
    10:00 +22°C° 0 mm 0 mps 743 mmHg 61%
    11:00 +25°C° 0 mm 1 mps 743 mmHg 54%
    12:00 +26°C° 0 mm 1 mps 743 mmHg 48%
    13:00 +27°C° 0 mm 2 mps 742 mmHg 42%
    14:00 +28°C° 0 mm 2 mps 741 mmHg 36%
    15:00 +27°C° 0 mm 3 mps 741 mmHg 37%
    16:00 +26°C° 0 mm 3 mps 741 mmHg 38%
    17:00 +25°C° 0 mm 3 mps 740 mmHg 38%
    18:00 +24°C° 0 mm 3 mps 741 mmHg 39%
    19:00 +23°C° 0 mm 2 mps 741 mmHg 40%
    20:00 +21°C° 0 mm 2 mps 742 mmHg 41%
    21:00 +20°C° 0 mm 2 mps 741 mmHg 46%
    22:00 +19°C° 0 mm 2 mps 741 mmHg 50%
    23:00 +19°C° 0 mm 2 mps 741 mmHg 54%

    23 Febrero, Sábado

    Tiempo Temperatura Precipitaciones Viento Presión Humedad
    00:00 +18°C° 0 mm 2 mps 741 mmHg 61%
    01:00 +18°C° 0 mm 2 mps 741 mmHg 68%
    02:00 +17°C° 0 mm 2 mps 740 mmHg 75%
    03:00 +17°C° 0 mm 2 mps 740 mmHg 77%
    04:00 +16°C° 0 mm 2 mps 740 mmHg 79%
    05:00 +16°C° 0 mm 2 mps 740 mmHg 81%
    06:00 +16°C° 0 mm 2 mps 741 mmHg 79%
    07:00 +16°C° 0 mm 2 mps 741 mmHg 77%
    08:00 +17°C° 0 mm 2 mps 742 mmHg 75%
    09:00 +19°C° 0 mm 2 mps 742 mmHg 66%
    10:00 +21°C° 0 mm 2 mps 742 mmHg 56%
    11:00 +24°C° 0 mm 2 mps 743 mmHg 46%
    12:00 +25°C° 0 mm 3 mps 742 mmHg 41%
    13:00 +25°C° 0 mm 3 mps 741 mmHg 36%
    14:00 +26°C° 0 mm 3 mps 740 mmHg 31%
    15:00 +25°C° 0 mm 3 mps 740 mmHg 34%
    16:00 +25°C° 0 mm 3 mps 740 mmHg 36%
    17:00 +24°C° 0 mm 3 mps 739 mmHg 39%
    18:00 +23°C° 0 mm 2 mps 739 mmHg 41%
    19:00 +21°C° 0 mm 2 mps 740 mmHg 42%
    20:00 +19°C° 0 mm 2 mps 740 mmHg 44%
    21:00 +19°C° 0 mm 2 mps 740 mmHg 46%
    22:00 +18°C° 0 mm 2 mps 740 mmHg 48%
    23:00 +17°C° 0 mm 2 mps 740 mmHg 50%
    Mostrar más